LEVCLEIB

Guest
Details From LEVC - Valencia Airport
To LEIB - Ibiza
Flight Number -
Tags generated
Created
Modified
Stats Distance 94 nm / 174 km
Max Altitude 8,400 ft / 2,560 m
Waypoints 3
Social Downloads 1
Likes 0
Share VATSIM

Download

Looking for another format? Having issues loading an existing format? Contact us
Advertisement - Login to hide

Notes

Basic altitude profile: - Ascent Rate: 2500ft/min - Ascent Speed: 250kts - Cruise Altitude: 16000ft - Cruise Speed: 420kts - Descent Rate: 1500ft/min - Descent Speed: 250kts Options: - Use NATs: yes - Use PACOTS: yes - Use low airways: yes - Use high airways: yes

Route

LEVC COMPI LEIB

ID Type Via Altitude (ft/m) Position (lat/lon) Dist (leg/tot) Name
O LEVC APT - 0 / 0 39.49000 / -0.48335 - / 0 nm Valencia Airport
COMPI FIX - 8,400 / 2,560 39.35080 / -0.00789 23 / 23 nm
O LEIB APT - 0 / 0 38.87290 / 1.37310 70 / 94 nm Ibiza

Altitude Profile

Advertisement - Login to hide

LEVC

Details ICAO LEVC (VLC)
Name Valencia
Region Spain
Timezone Europe/Madrid (UTC+1.0)
Stats Elevation 225 ft / 69 m (AMSL)
Location 39.490000° -0.483345°
Runways 1
Magnetic Variation 0.335° E

METAR

LEVC 220130Z 30007KT CAVOK 08/03 Q1027 NOSIG

Decode

TAF

TAF LEVC 212300Z 2200/2224 34005KT 9999 FEW030 TX19/2213Z TN07/2206Z BECMG 2208/2210 08011KT BECMG 2218/2220 31006KT

Decode

Departure Runways

ID Width Length Bearing (true/mag) Surface Threshold Overrun Markings Lighting
12 148 ft / 45 m 10,529 ft / 3,209 m 116.25° / 115.92° ASPHALT 0 ft / 0 m 787 ft / 240 m PREC-APP CENTERLINE EDGE THRESHOLD CALVERT REIL-OMNI
30 148 ft / 45 m 10,529 ft / 3,209 m 296.28° / 295.94° ASPHALT 974 ft / 297 m 945 ft / 288 m PREC-APP CENTERLINE EDGE THRESHOLD CALVERT REIL-OMNI

LEIB

Details ICAO LEIB (IBZ)
Name Ibiza
Region Spain
Timezone Europe/Madrid (UTC+1.0)
Stats Elevation 20 ft / 6 m (AMSL)
Location 38.872900° 1.373100°
Runways 1
Magnetic Variation 0.800° E

METAR

LEIB 220130Z AUTO 36006KT 340V040 9999 SCT025/// 12/07 Q1025

Decode

TAF

TAF LEIB 212000Z 2121/2221 02010KT 9999 FEW030 TX18/2212Z TN08/2206Z TEMPO 2208/2216 05015G25KT

Decode

Destination Runways

ID Width Length Bearing (true/mag) Surface Threshold Overrun Markings Lighting
06 148 ft / 45 m 9,196 ft / 2,803 m 61.99° / 61.19° ASPHALT 0 ft / 0 m 177 ft / 54 m APP CENTERLINE EDGE THRESHOLD MALS
24 148 ft / 45 m 9,196 ft / 2,803 m 242.01° / 241.21° ASPHALT 0 ft / 0 m 197 ft / 60 m PREC-APP CENTERLINE EDGE THRESHOLD CALVERT

Approach Navaids

Runway Type Ident Frequency Range Bearing (true/mag) Slope Elevation
06 GS IBI 111.10 MHz 10 nm / 19 km 62.00° / 61.20 ° 3.00° 20 ft / 6 m (AMSL)
06 DME IBI 111.10 MHz 18 nm / 33 km - - 20 ft / 6 m (AMSL)
06 LOC-ILS IBI 111.10 MHz 18 nm / 33 km 62.00° / 61.20 ° - 20 ft / 6 m (AMSL)
24 LOC-ILS IBZ 109.50 MHz 18 nm / 33 km 241.81° / 241.01 ° - 15 ft / 5 m (AMSL)
24 DME IBZ 109.50 MHz 18 nm / 33 km - - 69 ft / 21 m (AMSL)
24 GS IBZ 109.50 MHz 10 nm / 19 km 242.71° / 241.91 ° 3.00° 69 ft / 21 m (AMSL)

Popular Alternatives